RH
23 27 31 34 28 17 16 13 14 22 33 37 39 44 51 58 63 62 62 61 61 60
26 27 33 35 29 18 15 12 12 18 26 36 41 46 49 54 58 59 64 64 63 62
33 34 35 36 30 18 15 13 13 13 21 33 37 45 48 54 58 62 66 67 68 67
42 41 39 37 30 19 15 14 13 13 12 16 26 37 46 52 56 61 67 71 71 69
55 54 46 37 25 19 16 15 15 15 14 12 13 20 31 38 52 61 69 74 78 77
60 51 43 31 23 19 18 18 18 17 17 13 10 11 17 22 28 39 61 75 80 82
56 45 40 31 27 21 21 22 20 19 17 14 12 11 13 17 26 30 31 41 69 81
54 47 40 36 34 33 28 25 22 18 17 17 14 13 13 16 20 30 36 35 42 51
45 45 41 40 39 35 31 28 23 21 21 20 18 19 18 16 16 22 28 31 37 43
47 41 38 37 36 34 37 35 28 24 25 26 28 25 24 19 17 17 21 32 31 32
38 34 39 38 38 42 43 40 36 31 28 30 38 36 31 27 21 21 21 24 34 36
32 38 38 42 45 47 45 43 41 39 36 34 36 43 37 33 32 26 27 24 30 33
36 40 44 48 49 47 49 46 43 42 41 40 40 47 47 42 41 40 35 34 28 36
42 47 49 47 46 49 50 51 50 47 46 46 43 46 52 50 47 46 45 43 43 39